Weather History for Lancaster, SC

Change the Weather History Date:

Monday, March 18, 2013

  Actual Average (KUZA) Record (KUZA)
Temperature  
Mean Temperature 46 °F -  
Max Temperature 50 °F 63 °F 84 °F (1963)
Min Temperature 41 °F 39 °F 22 °F (1967)
Degree Days  
Heating Degree Days 20    
Moisture  
Dew Point 44 °F    
Average Humidity 94    
Maximum Humidity 100    
Minimum Humidity 71    
Precipitation  
Precipitation 0.27 in - - ()
Sea Level Pressure  
Sea Level Pressure 30.04 in    
Wind  
Wind Speed 6 mph (NE)    
Max Wind Speed 14 mph    
Max Gust Speed 23 mph    
Visibility 7 miles    
Events Rain , Thunderstorm    
Averages and records for this station are not official NWS values.
T = Trace of Precipitation, MM = Missing Value Source: NWS Daily Summary

Daily Weather History Graph

Daily Weather History Graph

Search for Another Location

Airport:

Trip Planner

Search our weather history database for the weather conditions in past years. The results will help you decide how hot, cold, wet, or windy it might be!

Date:

Astronomy

Mar. 18, 2013 Rise Set
Actual Time 7:29 AM EDT 7:33 PM EDT
Civil Twilight 7:04 AM EDT 7:58 PM EDT
Nautical Twilight 6:35 AM EDT 8:28 PM EDT
Astronomical Twilight 6:05 AM EDT 8:57 PM EDT
Moon 11:41 AM EDT (3/18) 1:18 AM EDT (3/18)
Length of Visible Light 12h 54m
Length of Day
12h 04m
Waxing Crescent, 40% of the Moon is Illuminated
Mar 18
Waxing Crescent
Mar 19
First Quarter
Mar 27
Full
Apr 3
Last Quarter
Apr 10
New

Hourly Weather History & Observations

Time (EDT) Temp. Windchill Dew Point Humidity Pressure Visibility Wind Dir Wind Speed Gust Speed Precip Events Conditions
12:15 AM 50.0 °F - 41.0 °F 71% 30.08 in 10.0 mi ENE 5.8 mph - N/A   Clear
12:35 AM 48.2 °F - 41.0 °F 76% 30.09 in 10.0 mi NE 6.9 mph 17.3 mph N/A   Clear
12:55 AM 48.2 °F - 41.0 °F 76% 30.08 in 10.0 mi ENE 6.9 mph - N/A   Clear
1:15 AM 48.2 °F - 41.0 °F 76% 30.08 in 10.0 mi NE 6.9 mph - N/A   Partly Cloudy
1:35 AM 48.2 °F - 41.0 °F 76% 30.08 in 10.0 mi NE 9.2 mph - N/A   Scattered Clouds
1:55 AM 48.2 °F - 41.0 °F 76% 30.08 in 10.0 mi NE 8.1 mph - N/A   Partly Cloudy
2:15 AM 46.4 °F 44.3 °F 41.0 °F 81% 30.08 in 10.0 mi NE 4.6 mph - N/A   Clear
2:35 AM 46.4 °F 45.2 °F 41.0 °F 81% 30.07 in 10.0 mi ENE 3.5 mph - N/A   Clear
2:55 AM 46.4 °F 42.9 °F 41.0 °F 81% 30.07 in 10.0 mi NE 6.9 mph - N/A   Scattered Clouds
3:15 AM 46.4 °F 41.9 °F 41.0 °F 81% 30.08 in 10.0 mi NE 9.2 mph - N/A   Mostly Cloudy
3:35 AM 46.4 °F 43.5 °F 41.0 °F 81% 30.08 in 10.0 mi ENE 5.8 mph - N/A   Overcast
3:55 AM 46.4 °F 41.5 °F 41.0 °F 81% 30.08 in 10.0 mi NNE 10.4 mph - N/A   Mostly Cloudy
4:15 AM 46.4 °F 43.5 °F 41.0 °F 81% 30.07 in 10.0 mi NE 5.8 mph - N/A   Mostly Cloudy
4:35 AM 46.4 °F 42.9 °F 41.0 °F 81% 30.08 in 9.0 mi NNE 6.9 mph - N/A   Mostly Cloudy
4:55 AM 46.4 °F 42.4 °F 42.8 °F 87% 30.08 in 8.0 mi NNE 8.1 mph 16.1 mph N/A   Overcast
5:15 AM 46.4 °F 42.4 °F 42.8 °F 87% 30.08 in 7.0 mi NE 8.1 mph - N/A   Mostly Cloudy
5:35 AM 46.4 °F 42.9 °F 42.8 °F 87% 30.09 in 7.0 mi NE 6.9 mph - N/A   Mostly Cloudy
5:55 AM 46.4 °F 41.9 °F 42.8 °F 87% 30.10 in 6.0 mi NNE 9.2 mph - N/A   Mostly Cloudy
6:15 AM 44.6 °F 42.2 °F 44.6 °F 100% 30.10 in 4.0 mi NE 4.6 mph - N/A   Mostly Cloudy
6:35 AM 44.6 °F 41.4 °F 44.6 °F 100% 30.10 in 4.0 mi NE 5.8 mph - N/A   Overcast
6:55 AM 44.6 °F - 44.6 °F 100% 30.11 in 4.0 mi Calm Calm - N/A   Overcast
7:15 AM 44.6 °F 41.4 °F 44.6 °F 100% 30.13 in 4.0 mi NE 5.8 mph - N/A Rain Light Rain
7:35 AM 44.6 °F 42.2 °F 44.6 °F 100% 30.13 in 3.0 mi NE 4.6 mph - N/A   Overcast
7:55 AM 44.6 °F 41.4 °F 44.6 °F 100% 30.13 in 2.0 mi NNE 5.8 mph - N/A   Overcast
8:15 AM 42.8 °F 40.1 °F 42.8 °F 100% 30.13 in 1.5 mi NE 4.6 mph - N/A   Overcast
8:35 AM 42.8 °F 40.1 °F 42.8 °F 100% 30.12 in 2.0 mi NE 4.6 mph - N/A   Overcast
8:55 AM 42.8 °F 40.1 °F 42.8 °F 100% 30.12 in 3.0 mi ENE 4.6 mph - N/A   Overcast
9:15 AM 44.6 °F 42.2 °F 44.6 °F 100% 30.12 in 5.0 mi NE 4.6 mph - N/A   Overcast
9:35 AM 44.6 °F 43.1 °F 44.6 °F 100% 30.11 in 7.0 mi NE 3.5 mph - N/A   Overcast
9:55 AM 44.6 °F 41.4 °F 44.6 °F 100% 30.11 in 8.0 mi NE 5.8 mph - N/A   Overcast
10:15 AM 44.6 °F 42.2 °F 44.6 °F 100% 30.11 in 4.0 mi NE 4.6 mph - N/A   Overcast
10:35 AM 44.6 °F - 44.6 °F 100% 30.10 in 3.0 mi Calm Calm - N/A   Overcast
10:55 AM 44.6 °F 41.4 °F 44.6 °F 100% 30.10 in 2.5 mi NE 5.8 mph - N/A   Overcast
11:15 AM 44.6 °F - 44.6 °F 100% 30.09 in 7.0 mi Calm Calm - N/A   Overcast
11:35 AM 44.6 °F 42.2 °F 44.6 °F 100% 30.10 in 9.0 mi ENE 4.6 mph - N/A   Overcast
11:55 AM 44.6 °F 41.4 °F 44.6 °F 100% 30.11 in 7.0 mi NE 5.8 mph - N/A   Overcast
12:15 PM 44.6 °F 42.2 °F 44.6 °F 100% 30.11 in 7.0 mi ENE 4.6 mph - N/A   Overcast
12:35 PM 44.6 °F 42.2 °F 44.6 °F 100% 30.10 in 7.0 mi ENE 4.6 mph - N/A   Overcast
1:15 PM 44.6 °F 43.1 °F 44.6 °F 100% 30.07 in 3.0 mi ENE 3.5 mph - N/A   Overcast
1:35 PM 44.6 °F 42.2 °F 44.6 °F 100% 30.07 in 2.5 mi NE 4.6 mph - N/A   Overcast
1:55 PM 46.4 °F 44.3 °F 46.4 °F 100% 30.05 in 5.0 mi ENE 4.6 mph - N/A   Overcast
2:15 PM 46.4 °F - 46.4 °F 100% 30.04 in 5.0 mi Calm Calm - N/A   Overcast
2:35 PM 46.4 °F 43.5 °F 46.4 °F 100% 30.03 in 5.0 mi NE 5.8 mph - N/A   Overcast
2:55 PM 46.4 °F 44.3 °F 46.4 °F 100% 30.01 in 5.0 mi East 4.6 mph - N/A   Overcast
3:15 PM 46.4 °F - 46.4 °F 100% 30.00 in 5.0 mi Calm Calm - N/A   Overcast
3:35 PM 46.4 °F 45.2 °F 46.4 °F 100% 29.99 in 6.0 mi North 3.5 mph - N/A   Overcast
3:55 PM 46.4 °F 44.3 °F 46.4 °F 100% 29.98 in 6.0 mi NNE 4.6 mph - N/A   Overcast
4:15 PM 48.2 °F - 48.2 °F 100% 29.96 in 7.0 mi NNE 6.9 mph - N/A   Overcast
4:35 PM 48.2 °F - 46.4 °F 93% 29.96 in 7.0 mi NNE 6.9 mph - N/A   Mostly Cloudy
4:55 PM 48.2 °F - 46.4 °F 93% 29.96 in 7.0 mi North 5.8 mph - N/A   Mostly Cloudy
5:15 PM 48.2 °F - 46.4 °F 93% 29.97 in 7.0 mi North 4.6 mph - N/A   Partly Cloudy
5:35 PM 48.2 °F - 46.4 °F 93% 29.94 in 6.0 mi NNE 5.8 mph - N/A   Partly Cloudy
6:15 PM 48.2 °F - 48.2 °F 100% 29.93 in 7.0 mi NNE 9.2 mph - N/A   Scattered Clouds
6:35 PM 48.2 °F - 48.2 °F 100% 29.91 in 8.0 mi NE 5.8 mph - N/A Thunderstorm Mostly Cloudy
6:55 PM 48.2 °F - 48.2 °F 100% 29.91 in 8.0 mi NE 4.6 mph - N/A   Overcast
7:15 PM 48.2 °F - 48.2 °F 100% 29.91 in 8.0 mi North 6.9 mph - N/A Thunderstorm Overcast
7:35 PM 48.2 °F - 48.2 °F 100% 29.91 in 7.0 mi NNE 4.6 mph - N/A   Overcast
7:55 PM 48.2 °F - 46.4 °F 93% 29.96 in 9.0 mi NNW 13.8 mph 20.7 mph N/A   Overcast
8:15 PM 46.4 °F 41.5 °F 46.4 °F 100% 29.95 in 2.0 mi North 10.4 mph - 0.01 in Rain , Thunderstorm Light Thunderstorms and Rain
8:35 PM 44.6 °F 39.2 °F 44.6 °F 100% 29.96 in 4.0 mi North 10.4 mph - 0.01 in Rain Light Rain
8:55 PM 44.6 °F 38.1 °F 44.6 °F 100% 29.97 in 3.0 mi North 13.8 mph 18.4 mph 0.02 in Rain Light Rain
9:15 PM 44.6 °F 38.1 °F 44.6 °F 100% 29.97 in 2.5 mi North 13.8 mph 19.6 mph N/A Rain , Thunderstorm Light Rain
9:35 PM 42.8 °F 39.3 °F 42.8 °F 100% 30.04 in 3.0 mi WNW 5.8 mph 23.0 mph 0.04 in Rain , Thunderstorm Light Thunderstorms and Rain
9:55 PM 41.0 °F 39.0 °F 41.0 °F 100% 29.99 in 2.5 mi East 3.5 mph - 0.23 in Rain , Thunderstorm Rain
10:15 PM 41.0 °F 39.0 °F 41.0 °F 100% 29.93 in 7.0 mi East 3.5 mph - 0.02 in Rain Light Rain
10:35 PM 41.0 °F 37.1 °F 41.0 °F 100% 29.89 in 10.0 mi East 5.8 mph - 0.02 in Rain Light Rain
10:55 PM 42.8 °F - 42.8 °F 100% 29.90 in 10.0 mi Calm Calm - 0.02 in Rain Light Rain
11:15 PM 42.8 °F - 42.8 °F 100% 29.89 in 10.0 mi Calm Calm - N/A Rain Light Rain
11:35 PM 42.8 °F - 42.8 °F 100% 29.89 in 10.0 mi Calm Calm - N/A   Partly Cloudy
11:55 PM 42.8 °F - 42.8 °F 100% 29.88 in 10.0 mi Calm Calm - N/A   Partly Cloudy